Content
SEND FEEDBACK

Daily
Averages
Monthly
Summary
United States of America

HINGHAM, MASSACHUSETTS


Home > North America > United States > Massachusetts
Elevation: 3 feet     Latitude: 42 14N     Longitude: 070 55W

WEATHER
 
SELECT A DAY
Number of Records: 132,954;   Date Range: 10/15/98 - 7/22/14
 
SHARE

PRINT THIS DATA

[ ← Previous Day ]
WEATHER ALMANAC - MAY 7, 2013
[ Next Day → ]
[ °C ]   °F
Weather ElementAverageHighLow
Temperature63.9 °F75.9 °F (1:54 pm)50 °F (2:54 am)
Dewpoint48.9 °F54 °F (4:54 pm)39.9 °F (5:54 am)
Humidity59.7 %84 % (11:54 pm)43 % (1:54 pm)
Barometer30.18 in30.20 in (6:54 am)30.13 in (3:54 pm)
Wind Speed9.5 mph16.1 mph (4:54 pm)
Wind Gust23 mph (5:54 pm)
Weather ElementAverage
Wind DirectionSSE (168.7 °)

Weather ElementTotal
Precipitation---
Heating Degree Days2.1 (Base 65)
Growing Degree Days13 (Base 50)
Averaged from 23 records on May 7, 2013
WEATHER CONDITIONS BREAKOUT
WIND DIRECTION BREAKOUT
WEATHER BY HOUR - MAY 7, 2013
[ °C ]   °F
Local TimeTemperatureDewpointHumidityBarometerVisibilityWind DirectionWind SpeedGust SpeedPrecipitationEventsConditions
1:54 AM51.1 °F45.0 °F80 %30.19 inSW (230°)11.5 mph
2:54 AM50.0 °F45.0 °F83 %30.18 inWSW (240°)9.2 mph
3:54 AM52.0 °F42.1 °F69 %30.18 inSW (230°)10.4 mph
4:54 AM53.1 °F41.0 °F64 %30.19 inWSW (250°)6.9 mph
5:54 AM54.0 °F39.9 °F59 %30.19 inWSW (240°)6.9 mph
6:54 AM55.9 °F41.0 °F57 %30.20 inWest (260°)4.6 mph
7:54 AM60.1 °F42.1 °F51 %30.20 inCalm
8:54 AM63.0 °F46.0 °F54 %30.20 inWNW (290°)3.5 mph
9:54 AM66.9 °F46.9 °F49 %30.20 inVariable3.5 mph
10:54 AM70.0 °F50.0 °F49 %30.20 inSE (140°)9.2 mph
11:54 AM73.0 °F51.1 °F46 %30.19 inVariable4.6 mph
12:54 PM73.0 °F51.1 °F46 %30.18 inSSE (150°)8.1 mph
1:54 PM75.9 °F52.0 °F43 %30.17 inVariable5.8 mph
2:54 PM75.9 °F52.0 °F43 %30.14 inSouth (190°)8.1 mph17.3 mph
3:54 PM75.0 °F53.1 °F46 %30.13 inSouth (180°)11.5 mph18.4 mph
4:54 PM73.9 °F54.0 °F50 %30.13 inSSW (200°)16.1 mph21.9 mph
5:54 PM72.0 °F54.0 °F53 %30.13 inSouth (190°)13.8 mph23.0 mph
6:54 PM69.1 °F53.1 °F57 %30.15 inSouth (190°)16.1 mph21.9 mph
7:54 PM64.9 °F54.0 °F68 %30.17 inSouth (180°)13.8 mph20.7 mph
8:54 PM63.0 °F54.0 °F72 %30.18 inSouth (180°)13.8 mph
9:54 PM61.0 °F52.0 °F72 %30.19 inSouth (180°)15.0 mph19.6 mph
10:54 PM60.1 °F53.1 °F78 %30.20 inSouth (180°)12.7 mph21.9 mph
11:54 PM57.9 °F53.1 °F84 %30.20 inSouth (180°)13.8 mph
Hourly data recorded from KMQE, located miles away from Hingham, Massachusetts







STORIES FROM OUR PARTNERS